Erzurum, Turkey

4:07 AM +03 on June 28, 2017 (GMT +0300)
Erzurum

Weather History for LTCE - July, 2013

Change the Weather History Date:

Thursday, July 4, 2013

  Actual Average Record
Temperature  
Mean Temperature 66 °F -  
Max Temperature 81 °F 79 °F 87 °F (1996)
Min Temperature 51 °F 53 °F 41 °F (2008)
Cooling Degree Days 1    
Growing Degree Days 16 (Base 50)    
Moisture  
Dew Point 48 °F    
Average Humidity 54    
Maximum Humidity 77    
Minimum Humidity 19    
Precipitation  
Precipitation 0.00 in 0.03 in - ()
Sea Level Pressure  
Sea Level Pressure 29.98 in    
Wind  
Wind Speed 10 mph ()    
Max Wind Speed 17 mph    
Max Gust Speed -    
Visibility 6.9 miles    
Events Rain , Thunderstorm    
Averages and records for this station are not official NWS values.
T = Trace of Precipitation, MM = Missing Value Source: Averaged Metar Reports

Daily Weather History Graph

Daily Weather History Graph

Search for Another Location

Airport or City:

Trip Planner

Search our weather history database for the weather conditions in past years. The results will help you decide how hot, cold, wet, or windy it might be!

Date:

Astronomy

Jul. 04, 2013 Rise Set
Actual Time 4:51 AM EEST 7:47 PM EEST
Civil Twilight 4:19 AM EEST 8:19 PM EEST
Nautical Twilight 3:38 AM EEST 9:00 PM EEST
Astronomical Twilight 2:50 AM EEST 9:48 PM EEST
Moon 1:54 AM EEST (7/4) 4:32 PM EEST (7/4)
Length of Visible Light 16h 00m
Length of Day
14h 55m
Waning Crescent, 13% of the Moon is Illuminated
Jul 4
Waning Crescent
Jul 8
New
Jul 16
First Quarter
Jul 22
Full
Jul 29
Last Quarter

Hourly Weather History & Observations

Time (EEST) Temp. Dew Point Humidity Pressure Visibility Wind Dir Wind Speed Gust Speed Precip Events Conditions
12:20 AM 59.0 °F 46.4 °F 63% 30.01 in - ENE 16.1 mph - N/A   Clear
12:50 AM 59.0 °F 46.4 °F 63% 30.01 in - ENE 17.3 mph - N/A   Clear
1:20 AM 57.2 °F 46.4 °F 67% 30.01 in - NE 15.0 mph - N/A   Clear
1:50 AM 55.4 °F 46.4 °F 72% 30.01 in - NE 11.5 mph - N/A   Clear
2:20 AM 55.4 °F 46.4 °F 72% 30.01 in - ENE 13.8 mph - N/A   Clear
2:50 AM 55.4 °F 46.4 °F 72% 30.01 in - ENE 12.7 mph - N/A   Clear
3:00 AM 55 °F 46 °F 63%  in 12 mi ENE 12.7 mph - -  
3:20 AM 55.4 °F 46.4 °F 72% 30.01 in - ENE 10.4 mph - N/A   Clear
3:50 AM 53.6 °F 46.4 °F 77% 30.01 in - NE 10.4 mph - N/A   Clear
4:20 AM 53.6 °F 46.4 °F 77% 30.01 in - NE 11.5 mph - N/A   Clear
4:50 AM 53.6 °F 46.4 °F 77% 30.01 in - NE 11.5 mph - N/A   Clear
5:20 AM 53.6 °F 46.4 °F 77% 30.01 in - NE 10.4 mph - N/A   Clear
5:50 AM 55.4 °F 48.2 °F 77% 30.01 in - NE 6.9 mph - N/A   Clear
6:20 AM 57.2 °F 48.2 °F 72% 30.01 in - NE 8.1 mph - N/A   Clear
6:50 AM 59.0 °F 48.2 °F 67% 30.01 in - NE 5.8 mph - N/A   Clear
7:20 AM 60.8 °F 48.2 °F 63% 30.01 in - East 8.1 mph - N/A   Clear
7:50 AM 62.6 °F 48.2 °F 59% 30.04 in - East 9.2 mph - N/A   Clear
8:20 AM 62.6 °F 48.2 °F 59% 30.04 in - East 9.2 mph - N/A   Clear
8:50 AM 62.6 °F 48.2 °F 59% 30.01 in 6.2 mi ENE 12.7 mph - N/A   Partly Cloudy
9:00 AM 63 °F 47 °F 45%  in 12 mi East 12.7 mph - -   Scattered Clouds
9:20 AM 64.4 °F 48.2 °F 56% 30.01 in 6.2 mi ENE 11.5 mph - N/A   Partly Cloudy
9:50 AM 68.0 °F 50.0 °F 52% 30.01 in 6.2 mi NE 10.4 mph - N/A   Partly Cloudy
10:20 AM 68.0 °F 46.4 °F 46% 30.01 in 6.2 mi East 11.5 mph - N/A   Partly Cloudy
10:50 AM 69.8 °F 48.2 °F 46% 30.01 in 6.2 mi East 11.5 mph - N/A   Partly Cloudy
11:20 AM 71.6 °F 48.2 °F 43% 29.98 in 6.2 mi East 10.4 mph - N/A   Partly Cloudy
11:50 AM 73.4 °F 50.0 °F 44% 29.98 in 6.2 mi ENE 10.4 mph - N/A   Partly Cloudy
12:20 PM 75.2 °F 50.0 °F 41% 29.98 in 6.2 mi East 9.2 mph - N/A   Partly Cloudy
12:50 PM 73.4 °F 48.2 °F 41% 29.98 in 6.2 mi East 9.2 mph - N/A   Partly Cloudy
1:20 PM 77.0 °F 48.2 °F 36% 29.98 in 6.2 mi Variable 6.9 mph - N/A   Partly Cloudy
1:50 PM 77.0 °F 48.2 °F 36% 29.95 in 6.2 mi ENE 8.1 mph - N/A   Scattered Clouds
2:20 PM 77.0 °F 46.4 °F 34% 29.95 in 6.2 mi Variable 6.9 mph - N/A   Scattered Clouds
2:50 PM 78.8 °F 44.6 °F 30% 29.95 in 6.2 mi Variable 4.6 mph - N/A   Scattered Clouds
3:00 PM 79 °F 44 °F 19%  in 12 mi NNE 3.5 mph - -   Partly Cloudy
3:20 PM 77.0 °F 44.6 °F 32% 29.95 in 6.2 mi North 4.6 mph - N/A   Scattered Clouds
3:50 PM 78.8 °F 44.6 °F 30% 29.92 in 6.2 mi Variable 5.8 mph - N/A Thunderstorm Scattered Clouds
4:20 PM 78.8 °F 44.6 °F 30% 29.92 in 6.2 mi North 4.6 mph - N/A Thunderstorm Thunderstorm
4:50 PM 77.0 °F 44.6 °F 32% 29.92 in 6.2 mi SW 3.5 mph - N/A Thunderstorm Thunderstorm
5:00 PM 73.4 °F 48.2 °F 41% 29.92 in 6.2 mi South 6.9 mph - N/A Rain , Thunderstorm Light Thunderstorms and Rain
5:20 PM 71.6 °F 46.4 °F 41% 29.92 in 6.2 mi ESE 12.7 mph - N/A Rain , Thunderstorm Light Thunderstorms and Rain
5:40 PM 71.6 °F 46.4 °F 41% 29.92 in 6.2 mi ESE 12.7 mph - N/A   Mostly Cloudy
5:50 PM 69.8 °F 53.6 °F 56% 29.92 in 6.2 mi ESE 10.4 mph - N/A   Mostly Cloudy
6:20 PM 69.8 °F 51.8 °F 53% 29.92 in 6.2 mi ESE 8.1 mph - N/A   Mostly Cloudy
6:50 PM 68.0 °F 51.8 °F 56% 29.92 in 6.2 mi NNE 5.8 mph - N/A   Mostly Cloudy
7:20 PM 66.2 °F 53.6 °F 64% 29.95 in 6.2 mi North 8.1 mph - N/A   Mostly Cloudy
7:50 PM 66.2 °F 51.8 °F 60% 29.95 in 6.2 mi East 6.9 mph - N/A   Mostly Cloudy
8:20 PM 66.2 °F 50.0 °F 56% 29.95 in 6.2 mi East 8.1 mph - N/A   Scattered Clouds
8:50 PM 64.4 °F 48.2 °F 56% 29.98 in 6.2 mi ENE 5.8 mph - N/A   Scattered Clouds
9:00 PM 64 °F 49 °F 47%  in 12 mi ENE 5.8 mph - -   Partly Cloudy
9:20 PM 64.4 °F 48.2 °F 56% 29.98 in 6.2 mi East 8.1 mph - N/A   Partly Cloudy
9:50 PM 64.4 °F 48.2 °F 56% 29.98 in 6.2 mi ENE 12.7 mph - N/A   Partly Cloudy
10:20 PM 64.4 °F 48.2 °F 56% 30.01 in - ENE 12.7 mph - N/A   Clear
10:50 PM 64.4 °F 48.2 °F 56% 30.01 in - East 16.1 mph - N/A   Clear
11:20 PM 62.6 °F 46.4 °F 55% 30.01 in - East 17.3 mph - N/A   Clear
11:50 PM 60.8 °F 44.6 °F 55% 30.01 in - ENE 13.8 mph - N/A   Clear